Time,TemperatureF,DewpointF,PressureIn,WindDirection,WindDirectionDegrees,WindSpeedMPH,WindSpeedGustMPH,Humidity,HourlyPrecipIn,Conditions,Clouds,dailyrainin,SoftwareType,DateUTC
2013-03-07 00:02:00,45.7,23.9,30.30,North,0,3.0,8.0,42,0.00,,,0.00,meteohub,2013-03-07 06:02:00,
2013-03-07 00:07:00,45.7,23.9,30.30,North,0,3.0,5.0,42,0.00,,,0.00,meteohub,2013-03-07 06:07:00,
2013-03-07 00:12:00,45.1,23.9,30.30,NE,45,4.0,7.0,43,0.00,,,0.00,meteohub,2013-03-07 06:12:00,
2013-03-07 00:22:00,44.8,23.7,30.29,North,0,2.0,7.0,43,0.00,,,0.00,meteohub,2013-03-07 06:22:00,
2013-03-07 00:32:00,44.6,24.6,30.28,South,180,6.0,6.0,45,0.00,,,0.00,meteohub,2013-03-07 06:32:00,
2013-03-07 00:37:00,44.4,25.0,30.28,North,0,4.0,6.0,46,0.00,,,0.00,meteohub,2013-03-07 06:37:00,
2013-03-07 00:47:00,44.2,24.8,30.28,NE,45,4.0,6.0,46,0.00,,,0.00,meteohub,2013-03-07 06:47:00,
2013-03-07 00:57:00,44.2,25.3,30.27,NE,45,4.0,8.0,47,0.00,,,0.00,meteohub,2013-03-07 06:57:00,
2013-03-07 01:02:00,44.1,25.7,30.27,NE,45,4.0,8.0,48,0.00,,,0.00,meteohub,2013-03-07 07:02:00,
2013-03-07 01:07:00,44.1,25.7,30.27,NE,45,4.0,5.0,48,0.00,,,0.00,meteohub,2013-03-07 07:07:00,
2013-03-07 01:12:00,44.1,26.1,30.27,East,90,5.0,8.0,49,0.00,,,0.00,meteohub,2013-03-07 07:12:00,
2013-03-07 01:17:00,43.9,25.9,30.26,North,0,5.0,8.0,49,0.00,,,0.00,meteohub,2013-03-07 07:17:00,
2013-03-07 01:22:00,43.9,25.9,30.27,NNE,23,6.0,8.0,49,0.00,,,0.00,meteohub,2013-03-07 07:22:00,
2013-03-07 01:27:00,43.9,25.5,30.27,North,0,4.0,8.0,48,0.00,,,0.00,meteohub,2013-03-07 07:27:00,
2013-03-07 01:32:00,43.9,25.9,30.26,NW,315,8.0,8.0,49,0.00,,,0.00,meteohub,2013-03-07 07:32:00,
2013-03-07 01:37:00,43.7,25.7,30.27,NE,45,3.0,8.0,49,0.00,,,0.00,meteohub,2013-03-07 07:37:00,
2013-03-07 01:42:00,43.7,25.7,30.26,NW,315,3.0,8.0,49,0.00,,,0.00,meteohub,2013-03-07 07:42:00,
2013-03-07 01:47:00,43.5,25.7,30.26,North,0,5.0,8.0,49,0.00,,,0.00,meteohub,2013-03-07 07:47:00,
2013-03-07 01:57:00,43.2,25.3,30.27,NW,315,2.0,5.0,49,0.00,,,0.00,meteohub,2013-03-07 07:57:00,
2013-03-07 02:02:00,43.2,25.7,30.28,NNE,23,2.0,5.0,50,0.00,,,0.00,meteohub,2013-03-07 08:02:00,
2013-03-07 02:07:00,43.2,25.7,30.28,NNE,23,2.0,3.0,50,0.00,,,0.00,meteohub,2013-03-07 08:07:00,
2013-03-07 02:12:00,43.0,25.7,30.28,WSW,248,1.0,3.0,50,0.00,,,0.00,meteohub,2013-03-07 08:12:00,
2013-03-07 02:22:00,42.8,25.5,30.27,North,0,2.0,3.0,50,0.00,,,0.00,meteohub,2013-03-07 08:22:00,
2013-03-07 02:27:00,42.8,25.9,30.28,NNW,338,2.0,4.0,51,0.00,,,0.00,meteohub,2013-03-07 08:27:00,
2013-03-07 02:32:00,42.6,26.2,30.29,West,270,1.0,4.0,52,0.00,,,0.00,meteohub,2013-03-07 08:32:00,
2013-03-07 02:37:00,42.4,26.1,30.29,North,0,2.0,4.0,52,0.00,,,0.00,meteohub,2013-03-07 08:37:00,
2013-03-07 02:47:00,42.4,26.1,30.28,NE,45,2.0,3.0,52,0.00,,,0.00,meteohub,2013-03-07 08:47:00,
2013-03-07 02:52:00,42.4,26.1,30.29,NW,315,2.0,3.0,52,0.00,,,0.00,meteohub,2013-03-07 08:52:00,
2013-03-07 02:57:00,42.4,26.6,30.28,WSW,248,4.0,4.0,53,0.00,,,0.00,meteohub,2013-03-07 08:57:00,
2013-03-07 03:02:00,42.4,26.6,30.28,North,0,4.0,4.0,53,0.00,,,0.00,meteohub,2013-03-07 09:02:00,
2013-03-07 03:07:00,42.4,26.6,30.28,North,0,4.0,6.0,53,0.00,,,0.00,meteohub,2013-03-07 09:07:00,
2013-03-07 03:12:00,42.3,26.4,30.28,North,0,2.0,6.0,53,0.00,,,0.00,meteohub,2013-03-07 09:12:00,
2013-03-07 03:22:00,41.9,26.4,30.29,North,0,2.0,4.0,54,0.00,,,0.00,meteohub,2013-03-07 09:22:00,
2013-03-07 03:27:00,41.9,26.4,30.28,North,0,2.0,3.0,54,0.00,,,0.00,meteohub,2013-03-07 09:27:00,
2013-03-07 03:32:00,41.7,26.2,30.29,NE,45,2.0,4.0,54,0.00,,,0.00,meteohub,2013-03-07 09:32:00,
2013-03-07 03:42:00,41.5,26.1,30.29,North,0,0.0,3.0,54,0.00,,,0.00,meteohub,2013-03-07 09:42:00,
2013-03-07 03:47:00,41.2,26.2,30.30,West,270,2.0,2.0,55,0.00,,,0.00,meteohub,2013-03-07 09:47:00,
2013-03-07 03:52:00,41.0,26.1,30.30,West,270,0.0,2.0,55,0.00,,,0.00,meteohub,2013-03-07 09:52:00,
2013-03-07 04:02:00,40.5,26.1,30.30,West,270,0.0,2.0,56,0.00,,,0.00,meteohub,2013-03-07 10:02:00,
2013-03-07 04:12:00,39.9,25.9,30.30,North,0,0.0,1.0,57,0.00,,,0.00,meteohub,2013-03-07 10:12:00,
2013-03-07 04:22:00,39.2,25.7,30.30,North,0,0.0,1.0,58,0.00,,,0.00,meteohub,2013-03-07 10:22:00,
2013-03-07 04:27:00,39.2,25.7,30.31,North,0,0.0,0.0,58,0.00,,,0.00,meteohub,2013-03-07 10:27:00,
2013-03-07 04:32:00,38.8,25.7,30.31,North,0,0.0,0.0,59,0.00,,,0.00,meteohub,2013-03-07 10:32:00,
2013-03-07 04:42:00,38.8,26.6,30.30,NE,45,2.0,2.0,61,0.00,,,0.00,meteohub,2013-03-07 10:42:00,
2013-03-07 04:47:00,38.7,26.4,30.30,North,0,1.0,2.0,61,0.00,,,0.00,meteohub,2013-03-07 10:47:00,
2013-03-07 04:52:00,38.5,26.2,30.31,NW,315,1.0,2.0,61,0.00,,,0.00,meteohub,2013-03-07 10:52:00,
2013-03-07 04:57:00,38.5,26.6,30.30,North,0,2.0,2.0,62,0.00,,,0.00,meteohub,2013-03-07 10:57:00,
2013-03-07 05:07:00,38.3,26.4,30.31,North,0,2.0,2.0,62,0.00,,,0.00,meteohub,2013-03-07 11:07:00,
2013-03-07 05:12:00,37.9,26.8,30.31,SW,225,2.0,2.0,64,0.00,,,0.00,meteohub,2013-03-07 11:12:00,
2013-03-07 05:22:00,37.6,27.0,30.31,NE,45,2.0,2.0,65,0.00,,,0.00,meteohub,2013-03-07 11:22:00,
2013-03-07 05:32:00,37.4,26.8,30.31,NW,315,0.0,2.0,65,0.00,,,0.00,meteohub,2013-03-07 11:32:00,
2013-03-07 05:37:00,37.0,26.4,30.31,NW,315,0.0,2.0,65,0.00,,,0.00,meteohub,2013-03-07 11:37:00,
2013-03-07 05:47:00,36.9,26.6,30.31,NE,45,3.0,0.0,66,0.00,,,0.00,meteohub,2013-03-07 11:47:00,
2013-03-07 05:57:00,36.9,27.3,30.30,North,0,2.0,3.0,68,0.00,,,0.00,meteohub,2013-03-07 11:57:00,
2013-03-07 06:02:00,36.9,27.3,30.30,North,0,2.0,3.0,68,0.00,,,0.00,meteohub,2013-03-07 12:02:00,
2013-03-07 06:07:00,36.9,27.3,30.30,North,0,2.0,3.0,68,0.00,,,0.00,meteohub,2013-03-07 12:07:00,
2013-03-07 06:12:00,36.7,27.1,30.30,NW,315,1.0,3.0,68,0.00,,,0.00,meteohub,2013-03-07 12:12:00,
2013-03-07 06:17:00,36.9,27.7,30.30,North,0,2.0,3.0,69,0.00,,,0.00,meteohub,2013-03-07 12:17:00,
2013-03-07 06:27:00,36.9,27.7,30.31,NW,315,2.0,2.0,69,0.00,,,0.00,meteohub,2013-03-07 12:27:00,
2013-03-07 06:32:00,37.0,28.2,30.32,NW,315,2.0,2.0,70,0.00,,,0.00,meteohub,2013-03-07 12:32:00,
2013-03-07 06:37:00,37.2,28.4,30.32,North,0,2.0,2.0,70,0.00,,,0.00,meteohub,2013-03-07 12:37:00,
2013-03-07 06:42:00,37.4,28.6,30.32,North,0,3.0,3.0,70,0.00,,,0.00,meteohub,2013-03-07 12:42:00,
2013-03-07 06:52:00,37.8,28.9,30.32,NE,45,4.0,4.0,70,0.00,,,0.00,meteohub,2013-03-07 12:52:00,
2013-03-07 06:57:00,37.9,29.1,30.32,NE,45,2.0,4.0,70,0.00,,,0.00,meteohub,2013-03-07 12:57:00,
2013-03-07 07:02:00,38.1,29.1,30.33,NE,45,2.0,4.0,70,0.00,,,0.00,meteohub,2013-03-07 13:02:00,
2013-03-07 07:07:00,38.1,29.1,30.33,NE,45,2.0,4.0,70,0.00,,,0.00,meteohub,2013-03-07 13:07:00,
2013-03-07 07:17:00,39.0,29.7,30.34,NE,45,4.0,4.0,69,0.00,,,0.00,meteohub,2013-03-07 13:17:00,
2013-03-07 07:22:00,39.6,29.8,30.34,NE,45,5.0,6.0,68,0.00,,,0.00,meteohub,2013-03-07 13:22:00,
2013-03-07 07:27:00,40.1,30.4,30.34,NNE,23,6.0,6.0,68,0.00,,,0.00,meteohub,2013-03-07 13:27:00,
2013-03-07 07:32:00,40.5,30.4,30.35,NE,45,5.0,6.0,67,0.00,,,0.00,meteohub,2013-03-07 13:32:00,
2013-03-07 07:37:00,41.2,30.7,30.35,East,90,5.0,7.0,66,0.00,,,0.00,meteohub,2013-03-07 13:37:00,
2013-03-07 07:42:00,41.9,30.9,30.35,North,0,3.0,7.0,65,0.00,,,0.00,meteohub,2013-03-07 13:42:00,
2013-03-07 07:47:00,42.6,31.3,30.35,North,0,3.0,6.0,64,0.00,,,0.00,meteohub,2013-03-07 13:47:00,
2013-03-07 07:52:00,43.3,31.3,30.35,East,90,4.0,5.0,62,0.00,,,0.00,meteohub,2013-03-07 13:52:00,
2013-03-07 07:57:00,43.9,30.6,30.35,NE,45,5.0,6.0,59,0.00,,,0.00,meteohub,2013-03-07 13:57:00,
2013-03-07 08:02:00,44.1,30.2,30.35,NE,45,8.0,8.0,58,0.00,,,0.00,meteohub,2013-03-07 14:02:00,
2013-03-07 08:12:00,45.0,28.9,30.36,ENE,68,7.0,8.0,53,0.00,,,0.00,meteohub,2013-03-07 14:12:00,
2013-03-07 08:17:00,45.5,28.9,30.36,East,90,6.0,8.0,52,0.00,,,0.00,meteohub,2013-03-07 14:17:00,
2013-03-07 08:22:00,46.0,28.9,30.37,NE,45,5.0,8.0,51,0.00,,,0.00,meteohub,2013-03-07 14:22:00,
2013-03-07 08:27:00,46.4,28.2,30.37,NNE,23,9.0,9.0,49,0.00,,,0.00,meteohub,2013-03-07 14:27:00,
2013-03-07 08:32:00,46.9,28.2,30.37,East,90,6.0,9.0,48,0.00,,,0.00,meteohub,2013-03-07 14:32:00,
2013-03-07 08:37:00,47.5,27.7,30.38,NE,45,9.0,9.0,46,0.00,,,0.00,meteohub,2013-03-07 14:37:00,
2013-03-07 08:42:00,47.8,27.5,30.38,NE,45,11.0,11.0,45,0.00,,,0.00,meteohub,2013-03-07 14:42:00,
2013-03-07 08:47:00,48.0,27.1,30.38,NW,315,6.0,11.0,44,0.00,,,0.00,meteohub,2013-03-07 14:47:00,
2013-03-07 08:52:00,48.7,27.3,30.38,East,90,7.0,11.0,43,0.00,,,0.00,meteohub,2013-03-07 14:52:00,
2013-03-07 08:57:00,49.5,27.3,30.38,South,180,6.0,11.0,42,0.00,,,0.00,meteohub,2013-03-07 14:57:00,
2013-03-07 09:02:00,50.2,28.6,30.38,NE,45,4.0,8.0,43,0.00,,,0.00,meteohub,2013-03-07 15:02:00,
2013-03-07 09:07:00,50.2,28.6,30.38,NE,45,4.0,7.0,43,0.00,,,0.00,meteohub,2013-03-07 15:07:00,
2013-03-07 09:12:00,50.5,25.9,30.38,East,90,5.0,8.0,38,0.00,,,0.00,meteohub,2013-03-07 15:12:00,
2013-03-07 09:17:00,50.5,25.9,30.39,NE,45,4.0,8.0,38,0.00,,,0.00,meteohub,2013-03-07 15:17:00,
2013-03-07 09:22:00,51.1,26.4,30.38,SSE,158,4.0,9.0,38,0.00,,,0.00,meteohub,2013-03-07 15:22:00,
2013-03-07 09:27:00,51.8,26.4,30.38,ENE,68,5.0,9.0,37,0.00,,,0.00,meteohub,2013-03-07 15:27:00,
2013-03-07 09:37:00,51.6,25.5,30.38,NE,45,5.0,10.0,36,0.00,,,0.00,meteohub,2013-03-07 15:37:00,
2013-03-07 09:47:00,52.3,25.5,30.38,NE,45,5.0,10.0,35,0.00,,,0.00,meteohub,2013-03-07 15:47:00,
2013-03-07 09:57:00,52.3,26.2,30.37,North,0,8.0,8.0,36,0.00,,,0.00,meteohub,2013-03-07 15:57:00,
2013-03-07 10:02:00,52.7,26.4,30.38,East,90,8.0,10.0,36,0.00,,,0.00,meteohub,2013-03-07 16:02:00,
2013-03-07 10:07:00,52.7,26.4,30.38,East,90,8.0,10.0,36,0.00,,,0.00,meteohub,2013-03-07 16:07:00,
2013-03-07 10:12:00,54.1,25.0,30.37,East,90,6.0,9.0,32,0.00,,,0.00,meteohub,2013-03-07 16:12:00,
2013-03-07 10:17:00,54.5,25.2,30.37,East,90,5.0,8.0,32,0.00,,,0.00,meteohub,2013-03-07 16:17:00,
2013-03-07 10:22:00,54.9,25.5,30.36,NE,45,5.0,8.0,32,0.00,,,0.00,meteohub,2013-03-07 16:22:00,
2013-03-07 10:27:00,55.4,24.4,30.37,East,90,4.0,8.0,30,0.00,,,0.00,meteohub,2013-03-07 16:27:00,
2013-03-07 10:32:00,55.9,23.4,30.36,East,90,5.0,8.0,28,0.00,,,0.00,meteohub,2013-03-07 16:32:00,
2013-03-07 10:37:00,56.1,24.3,30.36,NE,45,8.0,8.0,29,0.00,,,0.00,meteohub,2013-03-07 16:37:00,
2013-03-07 10:42:00,56.3,22.8,30.36,South,180,6.0,8.0,27,0.00,,,0.00,meteohub,2013-03-07 16:42:00,
2013-03-07 10:47:00,56.7,23.0,30.36,East,90,7.0,8.0,27,0.00,,,0.00,meteohub,2013-03-07 16:47:00,
2013-03-07 10:52:00,56.8,22.3,30.36,NE,45,4.0,8.0,26,0.00,,,0.00,meteohub,2013-03-07 16:52:00,
2013-03-07 10:57:00,57.9,21.4,30.36,East,90,4.0,8.0,24,0.00,,,0.00,meteohub,2013-03-07 16:57:00,
2013-03-07 11:02:00,57.7,21.2,30.36,ENE,68,5.0,8.0,24,0.00,,,0.00,meteohub,2013-03-07 17:02:00,
2013-03-07 11:07:00,57.7,21.2,30.36,ENE,68,5.0,6.0,24,0.00,,,0.00,meteohub,2013-03-07 17:07:00,
2013-03-07 11:12:00,58.6,21.9,30.36,NE,45,5.0,6.0,24,0.00,,,0.00,meteohub,2013-03-07 17:12:00,
2013-03-07 11:17:00,58.3,22.6,30.35,South,180,4.0,8.0,25,0.00,,,0.00,meteohub,2013-03-07 17:17:00,
2013-03-07 11:22:00,58.3,22.6,30.35,ENE,68,6.0,8.0,25,0.00,,,0.00,meteohub,2013-03-07 17:22:00,
2013-03-07 11:27:00,58.5,21.7,30.35,ENE,68,3.0,8.0,24,0.00,,,0.00,meteohub,2013-03-07 17:27:00,
2013-03-07 11:32:00,59.4,21.6,30.35,SW,225,2.0,8.0,23,0.00,,,0.00,meteohub,2013-03-07 17:32:00,
2013-03-07 11:42:00,60.1,21.0,30.34,NW,315,4.0,9.0,22,0.00,,,0.00,meteohub,2013-03-07 17:42:00,
2013-03-07 11:47:00,60.3,19.0,30.34,NW,315,3.0,9.0,20,0.00,,,0.00,meteohub,2013-03-07 17:47:00,
2013-03-07 11:57:00,60.3,17.8,30.34,SSE,158,4.0,8.0,19,0.00,,,0.00,meteohub,2013-03-07 17:57:00,
2013-03-07 12:02:00,60.4,19.2,30.34,North,0,6.0,10.0,20,0.00,,,0.00,meteohub,2013-03-07 18:02:00,
2013-03-07 12:07:00,60.4,19.2,30.34,North,0,6.0,10.0,20,0.00,,,0.00,meteohub,2013-03-07 18:07:00,
2013-03-07 12:12:00,60.8,20.7,30.34,NE,45,4.0,10.0,21,0.00,,,0.00,meteohub,2013-03-07 18:12:00,
2013-03-07 12:17:00,61.3,18.7,30.33,ESE,113,2.0,6.0,19,0.00,,,0.00,meteohub,2013-03-07 18:17:00,
2013-03-07 12:22:00,61.9,20.3,30.32,SE,135,2.0,6.0,20,0.00,,,0.00,meteohub,2013-03-07 18:22:00,
2013-03-07 12:27:00,62.6,17.2,30.32,NNE,23,8.0,8.0,17,0.00,,,0.00,meteohub,2013-03-07 18:27:00,
2013-03-07 12:32:00,62.1,16.7,30.32,East,90,5.0,8.0,17,0.00,,,0.00,meteohub,2013-03-07 18:32:00,
2013-03-07 12:37:00,62.1,15.3,30.32,South,180,3.0,8.0,16,0.00,,,0.00,meteohub,2013-03-07 18:37:00,
2013-03-07 12:42:00,61.9,15.3,30.32,NE,45,2.0,8.0,16,0.00,,,0.00,meteohub,2013-03-07 18:42:00,
2013-03-07 12:47:00,61.9,15.3,30.31,NW,315,4.0,5.0,16,0.00,,,0.00,meteohub,2013-03-07 18:47:00,
2013-03-07 12:52:00,61.9,16.5,30.31,SSW,203,2.0,8.0,17,0.00,,,0.00,meteohub,2013-03-07 18:52:00,
2013-03-07 13:02:00,62.6,17.2,30.30,SE,135,3.0,5.0,17,0.00,,,0.00,meteohub,2013-03-07 19:02:00,
2013-03-07 13:12:00,63.3,14.9,30.30,North,0,8.0,8.0,15,0.00,,,0.00,meteohub,2013-03-07 19:12:00,
2013-03-07 13:17:00,62.4,14.2,30.30,NE,45,2.0,8.0,15,0.00,,,0.00,meteohub,2013-03-07 19:17:00,
2013-03-07 13:22:00,62.6,14.4,30.29,South,180,2.0,8.0,15,0.00,,,0.00,meteohub,2013-03-07 19:22:00,
2013-03-07 13:27:00,63.3,14.9,30.30,WSW,248,4.0,8.0,15,0.00,,,0.00,meteohub,2013-03-07 19:27:00,
2013-03-07 13:37:00,64.2,8.6,30.29,NW,315,5.0,5.0,11,0.00,,,0.00,meteohub,2013-03-07 19:37:00,
2013-03-07 13:42:00,63.7,10.0,30.28,NE,45,4.0,6.0,12,0.00,,,0.00,meteohub,2013-03-07 19:42:00,
2013-03-07 13:52:00,64.6,10.8,30.28,NE,45,4.0,6.0,12,0.00,,,0.00,meteohub,2013-03-07 19:52:00,
2013-03-07 13:57:00,63.7,8.2,30.27,NW,315,4.0,6.0,11,0.00,,,0.00,meteohub,2013-03-07 19:57:00,
2013-03-07 14:02:00,63.3,7.9,30.28,NW,315,4.0,6.0,11,0.00,,,0.00,meteohub,2013-03-07 20:02:00,
2013-03-07 14:07:00,63.3,7.9,30.28,NW,315,4.0,6.0,11,0.00,,,0.00,meteohub,2013-03-07 20:07:00,
2013-03-07 14:17:00,64.0,12.2,30.27,NE,45,4.0,4.0,13,0.00,,,0.00,meteohub,2013-03-07 20:17:00,
2013-03-07 14:22:00,63.9,10.2,30.27,NE,45,4.0,4.0,12,0.00,,,0.00,meteohub,2013-03-07 20:22:00,
2013-03-07 14:27:00,63.7,11.8,30.27,North,0,2.0,4.0,13,0.00,,,0.00,meteohub,2013-03-07 20:27:00,
2013-03-07 14:32:00,64.6,10.8,30.27,NE,45,4.0,4.0,12,0.00,,,0.00,meteohub,2013-03-07 20:32:00,
2013-03-07 14:37:00,64.6,8.8,30.27,ESE,113,4.0,8.0,11,0.00,,,0.00,meteohub,2013-03-07 20:37:00,
2013-03-07 14:42:00,64.9,11.1,30.27,East,90,4.0,8.0,12,0.00,,,0.00,meteohub,2013-03-07 20:42:00,
2013-03-07 14:52:00,65.3,7.3,30.26,West,270,3.0,7.0,10,0.00,,,0.00,meteohub,2013-03-07 20:52:00,
2013-03-07 15:02:00,65.3,7.3,30.26,SW,225,4.0,5.0,10,0.00,,,0.00,meteohub,2013-03-07 21:02:00,
2013-03-07 15:07:00,64.9,9.1,30.26,SW,225,4.0,5.0,11,0.00,,,0.00,meteohub,2013-03-07 21:07:00,
2013-03-07 15:12:00,64.8,10.9,30.25,SW,225,2.0,5.0,12,0.00,,,0.00,meteohub,2013-03-07 21:12:00,
2013-03-07 15:17:00,64.6,8.8,30.26,SE,135,3.0,4.0,11,0.00,,,0.00,meteohub,2013-03-07 21:17:00,
2013-03-07 15:22:00,64.4,8.8,30.26,SW,225,4.0,5.0,11,0.00,,,0.00,meteohub,2013-03-07 21:22:00,
2013-03-07 15:27:00,64.4,10.6,30.25,SW,225,4.0,5.0,12,0.00,,,0.00,meteohub,2013-03-07 21:27:00,
2013-03-07 15:32:00,64.8,10.9,30.25,SW,225,2.0,4.0,12,0.00,,,0.00,meteohub,2013-03-07 21:32:00,
2013-03-07 15:37:00,65.8,11.8,30.25,NE,45,6.0,6.0,12,0.00,,,0.00,meteohub,2013-03-07 21:37:00,
2013-03-07 15:42:00,66.4,10.2,30.25,NW,315,2.0,6.0,11,0.00,,,0.00,meteohub,2013-03-07 21:42:00,
2013-03-07 15:47:00,66.4,10.2,30.24,NE,45,4.0,6.0,11,0.00,,,0.00,meteohub,2013-03-07 21:47:00,
2013-03-07 15:57:00,67.1,16.3,30.25,NE,45,4.0,4.0,14,0.00,,,0.00,meteohub,2013-03-07 21:57:00,
2013-03-07 16:02:00,67.3,14.7,30.25,North,0,7.0,7.0,13,0.00,,,0.00,meteohub,2013-03-07 22:02:00,
2013-03-07 16:07:00,67.3,14.7,30.25,North,0,7.0,7.0,13,0.00,,,0.00,meteohub,2013-03-07 22:07:00,
2013-03-07 16:12:00,67.3,14.7,30.25,West,270,2.0,7.0,13,0.00,,,0.00,meteohub,2013-03-07 22:12:00,
2013-03-07 16:17:00,66.9,14.5,30.25,South,180,3.0,7.0,13,0.00,,,0.00,meteohub,2013-03-07 22:17:00,
2013-03-07 16:22:00,66.6,15.8,30.25,East,90,2.0,7.0,14,0.00,,,0.00,meteohub,2013-03-07 22:22:00,
2013-03-07 16:32:00,66.4,17.2,30.25,East,90,5.0,5.0,15,0.00,,,0.00,meteohub,2013-03-07 22:32:00,
2013-03-07 16:37:00,65.8,16.9,30.24,East,90,4.0,6.0,15,0.00,,,0.00,meteohub,2013-03-07 22:37:00,
2013-03-07 16:42:00,66.2,17.2,30.24,SW,225,1.0,6.0,15,0.00,,,0.00,meteohub,2013-03-07 22:42:00,
2013-03-07 16:47:00,66.7,12.6,30.25,North,0,2.0,6.0,12,0.00,,,0.00,meteohub,2013-03-07 22:47:00,
2013-03-07 16:52:00,66.7,14.4,30.25,ENE,68,3.0,6.0,13,0.00,,,0.00,meteohub,2013-03-07 22:52:00,
2013-03-07 17:02:00,66.9,14.5,30.24,West,270,2.0,4.0,13,0.00,,,0.00,meteohub,2013-03-07 23:02:00,
2013-03-07 17:07:00,66.9,14.5,30.24,West,270,2.0,4.0,13,0.00,,,0.00,meteohub,2013-03-07 23:07:00,
2013-03-07 17:17:00,66.6,15.8,30.25,NE,45,2.0,2.0,14,0.00,,,0.00,meteohub,2013-03-07 23:17:00,
2013-03-07 17:22:00,66.0,18.5,30.25,SE,135,4.0,4.0,16,0.00,,,0.00,meteohub,2013-03-07 23:22:00,
2013-03-07 17:27:00,65.3,19.4,30.25,East,90,2.0,4.0,17,0.00,,,0.00,meteohub,2013-03-07 23:27:00,
2013-03-07 17:37:00,63.9,21.9,30.25,SE,135,3.0,4.0,20,0.00,,,0.00,meteohub,2013-03-07 23:37:00,
2013-03-07 17:42:00,63.5,22.8,30.25,East,90,4.0,4.0,21,0.00,,,0.00,meteohub,2013-03-07 23:42:00,
2013-03-07 17:52:00,62.6,23.2,30.25,SE,135,2.0,4.0,22,0.00,,,0.00,meteohub,2013-03-07 23:52:00,
2013-03-07 17:57:00,62.4,23.0,30.25,SSE,158,3.0,4.0,22,0.00,,,0.00,meteohub,2013-03-07 23:57:00,
2013-03-07 18:07:00,62.2,23.9,30.25,SE,135,2.0,4.0,23,0.00,,,0.00,meteohub,2013-03-08 00:07:00,
2013-03-07 18:12:00,61.7,24.6,30.26,South,180,2.0,4.0,24,0.00,,,0.00,meteohub,2013-03-08 00:12:00,
2013-03-07 18:22:00,61.0,25.0,30.26,South,180,2.0,4.0,25,0.00,,,0.00,meteohub,2013-03-08 00:22:00,
2013-03-07 18:32:00,60.3,25.2,30.26,East,90,0.0,4.0,26,0.00,,,0.00,meteohub,2013-03-08 00:32:00,
2013-03-07 18:42:00,59.5,25.5,30.26,East,90,0.0,2.0,27,0.00,,,0.00,meteohub,2013-03-08 00:42:00,
2013-03-07 18:47:00,59.2,26.1,30.26,East,90,1.0,1.0,28,0.00,,,0.00,meteohub,2013-03-08 00:47:00,
2013-03-07 18:57:00,58.5,27.1,30.27,NE,45,0.0,2.0,30,0.00,,,0.00,meteohub,2013-03-08 00:57:00,
2013-03-07 19:02:00,58.3,27.0,30.27,NE,45,2.0,2.0,30,0.00,,,0.00,meteohub,2013-03-08 01:02:00,
2013-03-07 19:07:00,58.3,27.0,30.27,NE,45,2.0,2.0,30,0.00,,,0.00,meteohub,2013-03-08 01:07:00,
2013-03-07 19:12:00,57.4,27.7,30.27,NE,45,1.0,2.0,32,0.00,,,0.00,meteohub,2013-03-08 01:12:00,
2013-03-07 19:22:00,56.8,28.8,30.26,East,90,1.0,2.0,34,0.00,,,0.00,meteohub,2013-03-08 01:22:00,
2013-03-07 19:27:00,56.5,28.4,30.27,East,90,2.0,2.0,34,0.00,,,0.00,meteohub,2013-03-08 01:27:00,
2013-03-07 19:32:00,56.1,28.8,30.27,East,90,0.0,2.0,35,0.00,,,0.00,meteohub,2013-03-08 01:32:00,
2013-03-07 19:42:00,55.9,29.3,30.27,East,90,1.0,2.0,36,0.00,,,0.00,meteohub,2013-03-08 01:42:00,
2013-03-07 19:47:00,55.8,29.1,30.26,East,90,0.0,2.0,36,0.00,,,0.00,meteohub,2013-03-08 01:47:00,
2013-03-07 19:52:00,55.4,28.9,30.27,East,90,0.0,2.0,36,0.00,,,0.00,meteohub,2013-03-08 01:52:00,
2013-03-07 19:57:00,55.0,29.3,30.27,East,90,0.0,2.0,37,0.00,,,0.00,meteohub,2013-03-08 01:57:00,
2013-03-07 20:02:00,54.9,29.7,30.27,East,90,0.0,0.0,38,0.00,,,0.00,meteohub,2013-03-08 02:02:00,
2013-03-07 20:07:00,54.9,29.7,30.27,East,90,0.0,0.0,38,0.00,,,0.00,meteohub,2013-03-08 02:07:00,
2013-03-07 20:12:00,54.0,29.5,30.27,East,90,0.0,0.0,39,0.00,,,0.00,meteohub,2013-03-08 02:12:00,
2013-03-07 20:17:00,53.8,30.0,30.27,East,90,0.0,0.0,40,0.00,,,0.00,meteohub,2013-03-08 02:17:00,
2013-03-07 20:22:00,53.6,29.8,30.27,East,90,0.0,0.0,40,0.00,,,0.00,meteohub,2013-03-08 02:22:00,
2013-03-07 20:32:00,53.4,30.9,30.27,East,90,0.0,0.0,42,0.00,,,0.00,meteohub,2013-03-08 02:32:00,
2013-03-07 20:42:00,53.1,30.6,30.27,East,90,0.0,1.0,42,0.00,,,0.00,meteohub,2013-03-08 02:42:00,
2013-03-07 20:47:00,52.9,30.9,30.27,East,90,0.0,1.0,43,0.00,,,0.00,meteohub,2013-03-08 02:47:00,
2013-03-07 20:52:00,52.5,30.7,30.27,East,90,0.0,0.0,43,0.00,,,0.00,meteohub,2013-03-08 02:52:00,
2013-03-07 21:02:00,52.2,31.5,30.27,East,90,0.0,0.0,45,0.00,,,0.00,meteohub,2013-03-08 03:02:00,
2013-03-07 21:12:00,52.0,31.8,30.27,North,0,0.0,2.0,46,0.00,,,0.00,meteohub,2013-03-08 03:12:00,
2013-03-07 21:17:00,51.8,31.6,30.27,North,0,1.0,2.0,46,0.00,,,0.00,meteohub,2013-03-08 03:17:00,
2013-03-07 21:22:00,51.6,32.0,30.27,East,90,0.0,2.0,47,0.00,,,0.00,meteohub,2013-03-08 03:22:00,
2013-03-07 21:32:00,51.4,31.8,30.27,East,90,1.0,2.0,47,0.00,,,0.00,meteohub,2013-03-08 03:32:00,
2013-03-07 21:42:00,50.9,31.8,30.27,East,90,0.0,2.0,48,0.00,,,0.00,meteohub,2013-03-08 03:42:00,
2013-03-07 21:47:00,50.7,31.8,30.27,East,90,0.0,1.0,48,0.00,,,0.00,meteohub,2013-03-08 03:47:00,
2013-03-07 21:52:00,50.5,32.0,30.28,East,90,0.0,0.0,49,0.00,,,0.00,meteohub,2013-03-08 03:52:00,
2013-03-07 22:02:00,50.2,32.2,30.28,SW,225,0.0,0.0,50,0.00,,,0.00,meteohub,2013-03-08 04:02:00,
2013-03-07 22:12:00,49.6,32.2,30.28,SW,225,0.0,0.0,51,0.00,,,0.00,meteohub,2013-03-08 04:12:00,
2013-03-07 22:17:00,49.5,32.5,30.28,SW,225,0.0,0.0,52,0.00,,,0.00,meteohub,2013-03-08 04:17:00,
2013-03-07 22:27:00,49.6,34.2,30.27,SE,135,2.0,4.0,55,0.00,,,0.00,meteohub,2013-03-08 04:27:00,
2013-03-07 22:32:00,49.5,33.4,30.27,SE,135,0.0,4.0,54,0.00,,,0.00,meteohub,2013-03-08 04:32:00,
2013-03-07 22:37:00,49.3,33.8,30.27,SE,135,2.0,2.0,55,0.00,,,0.00,meteohub,2013-03-08 04:37:00,
2013-03-07 22:42:00,49.1,33.6,30.27,SE,135,0.0,2.0,55,0.00,,,0.00,meteohub,2013-03-08 04:42:00,
2013-03-07 22:47:00,48.9,33.4,30.27,SE,135,0.0,2.0,55,0.00,,,0.00,meteohub,2013-03-08 04:47:00,
2013-03-07 22:52:00,48.7,33.3,30.27,SE,135,0.0,2.0,55,0.00,,,0.00,meteohub,2013-03-08 04:52:00,
2013-03-07 22:57:00,48.6,33.6,30.27,SE,135,0.0,1.0,56,0.00,,,0.00,meteohub,2013-03-08 04:57:00,
2013-03-07 23:02:00,48.4,33.4,30.27,SE,135,0.0,1.0,56,0.00,,,0.00,meteohub,2013-03-08 05:02:00,
2013-03-07 23:07:00,48.4,33.4,30.27,SE,135,0.0,1.0,56,0.00,,,0.00,meteohub,2013-03-08 05:07:00,
2013-03-07 23:12:00,48.0,33.4,30.27,SE,135,0.0,1.0,57,0.00,,,0.00,meteohub,2013-03-08 05:12:00,
2013-03-07 23:17:00,47.8,33.8,30.27,SE,135,0.0,0.0,58,0.00,,,0.00,meteohub,2013-03-08 05:17:00,
2013-03-07 23:22:00,47.8,33.8,30.27,SE,135,0.0,0.0,58,0.00,,,0.00,meteohub,2013-03-08 05:22:00,
2013-03-07 23:27:00,47.8,33.8,30.27,SE,135,0.0,0.0,58,0.00,,,0.00,meteohub,2013-03-08 05:27:00,
2013-03-07 23:32:00,47.7,34.0,30.26,SE,135,1.0,0.0,59,0.00,,,0.00,meteohub,2013-03-08 05:32:00,
2013-03-07 23:37:00,47.7,34.0,30.27,SE,135,0.0,1.0,59,0.00,,,0.00,meteohub,2013-03-08 05:37:00,
2013-03-07 23:42:00,47.5,33.8,30.26,SE,135,0.0,1.0,59,0.00,,,0.00,meteohub,2013-03-08 05:42:00,
2013-03-07 23:47:00,47.3,34.2,30.27,SE,135,0.0,1.0,60,0.00,,,0.00,meteohub,2013-03-08 05:47:00,
2013-03-07 23:52:00,47.3,34.2,30.26,SE,135,0.0,0.0,60,0.00,,,0.00,meteohub,2013-03-08 05:52:00,
2013-03-07 23:57:00,47.1,34.0,30.27,SE,135,0.0,0.0,60,0.00,,,0.00,meteohub,2013-03-08 05:57:00,